[[{"header":{"parameterUnit":"m.s-1","parameterCategory":1,"la1":30.2991,"la2":30.254,"lo1":-89.0895,"lo2":-89.0444,"dy":0.0017,"dx":0.0017,"nx":28,"ny":28,"refTime":"2024-10-04T09:00:00:Z","depth":0,"parameterNumber":2,"parameterNumberName":"U-component_of_WINDS"},"data":[0,0,0,0,0,0,0,0,0,0,0,0,0,0,0,0,0,0,0,0,0,0,0,0,0,0,0,0,0,0,0,0,0,0,0,0,0,0,0,0,0,0,0,0,0,0,0,0,0,0,0,0,0,0,0,0,0,0,-4.9876,-4.9876,0,-4.9815,-4.9815,-4.9814,-4.9663,-4.9659,-4.9656,-4.9653,-4.9595,-4.9596,-4.9597,0,0,0,0,0,0,0,0,0,0,0,0,0,-4.9865,-4.9866,-4.9876,-4.9876,-4.9875,-4.9815,-4.9815,-4.9814,-4.9663,-4.9659,-4.9655,-4.9652,-4.9594,-4.9596,-4.9597,0,0,0,0,0,0,0,0,0,0,0,0,0,-4.9844,-4.9867,-4.9877,-4.9792,-4.9784,-4.9816,-4.9815,-4.9814,-4.9664,-4.9659,-4.9654,-4.965,-4.9594,-4.9596,-4.9598,-4.9707,0,0,-4.9604,-4.9605,0,0,0,0,0,0,0,0,-4.9846,-4.9845,-4.9806,-4.9798,-4.9789,-4.9742,-4.9789,-4.9778,-4.9665,-4.971,-4.9653,-4.9648,-4.9648,-4.9645,-4.9644,-4.9704,-4.9702,-4.9604,-4.9606,-4.9607,-4.9607,0,0,0,0,0,0,0,-4.9847,-4.9846,-4.9852,-4.9805,-4.9795,-4.9759,-4.975,-4.9786,-4.9707,-4.9706,-4.9694,-4.9689,-4.9642,-4.9643,-4.9642,-4.9701,-4.9604,-4.9606,-4.9608,-4.9608,-4.9847,-4.9851,0,0,0,0,0,0,-4.986,-4.9849,-4.9854,-4.985,-4.9806,-4.9763,-4.9753,-4.9762,-4.9706,-4.9692,-4.9693,-4.9682,-4.9641,-4.9639,-4.9639,-4.9763,-4.9607,-4.9609,-4.961,-4.9842,-4.9848,-4.9853,0,0,0,0,0,0,-4.9861,-4.9862,-4.9857,-4.9846,-4.9843,-4.9768,-4.9779,-4.9763,-4.9763,-4.9696,-4.9682,-4.9708,-4.9637,-4.9636,-4.9691,-4.9759,-4.961,-4.9612,-4.9836,-4.9843,-4.985,-5.0012,0,0,0,0,0,0,-4.9861,-4.9863,-4.9903,-4.9848,-4.9844,-4.9909,-4.9783,-4.9765,-4.9767,-4.9752,-4.9706,-4.9694,-4.9634,-4.9688,-4.9693,-4.9759,-4.9613,-4.9829,-4.9839,-4.9848,-5.0,-5.0024,-5.0044,0,0,0,0,0,-4.9861,-4.9952,-4.9906,-4.9908,-4.9893,-4.9913,-4.9911,-4.9838,-4.9773,-4.9813,-4.977,-4.9696,-4.975,-4.9695,-4.9699,-4.9767,-4.9825,-4.9836,-4.9847,-4.999,-5.0019,-5.0044,0,0,0,0,0,0,-5.0019,-4.9943,-4.9892,-4.9967,-4.9948,-4.9888,-4.9936,-4.9871,-4.9871,-4.9857,-4.9768,-4.9759,-4.9826,-4.9801,-4.9741,-4.9869,-4.9775,-4.9788,-4.9883,-4.991,-4.9931,-4.9936,-4.9615,0,0,0,0,0,-5.0062,-5.0084,-5.0017,-5.0091,-5.0083,-5.0012,-5.0018,-4.9964,-4.994,-4.9932,-4.9892,-4.9873,-4.9886,-4.9896,-4.9904,-4.9995,-4.9983,-5.0044,-5.0066,-5.0084,-5.0097,-5.0143,-5.0169,-4.989,-4.989,-4.989,0,0,-5.0152,-5.0114,-5.0133,-5.0121,-5.01,-5.0125,-5.0006,-5.0038,-5.0056,-4.9937,-4.9985,-4.9956,-4.9929,-5.0003,-5.0033,-4.9984,-5.0171,-5.0099,-5.0114,-5.0116,-5.0157,-5.0183,-5.0207,-4.9898,-4.9897,-4.9896,0,0,-5.0329,-5.0303,-5.036,-5.034,-5.0308,-5.026,-5.0274,-5.0224,-5.0199,-5.0246,-5.0157,-5.0178,-5.0202,-5.0186,-5.0181,-5.0352,-5.0284,-5.0357,-5.0473,-5.0519,-5.0541,-5.056,-5.0621,-5.0644,-5.0369,-5.037,-5.037,0,-5.0446,-5.0479,-5.0399,-5.0436,-5.0434,-5.0325,-5.0383,-5.0368,-5.0342,-5.0343,-5.0288,-5.0315,-5.029,-5.0357,-5.0399,-5.0399,-5.0413,-5.0362,-5.0544,-5.0562,-5.0579,-5.0636,-5.0659,-5.0379,-5.0378,-5.0377,-5.0376,0,-5.0624,-5.0649,-5.07,-5.0675,-5.0678,-5.0726,-5.0653,-5.0666,-5.0612,-5.057,-5.0619,-5.0584,-5.0583,-5.0595,-5.0543,-5.0656,-5.0626,-5.056,-5.0464,-5.0616,-5.0668,-5.0689,-5.0392,-5.0389,-5.0386,-5.0384,0,0,-5.09,-5.0828,-5.0848,-5.0835,-5.0792,-5.081,-5.0853,-5.085,-5.0864,-5.0849,-5.0883,-5.0906,-5.0843,-5.0838,-5.0783,-5.0823,-5.096,-5.0751,-5.0749,-5.0791,-5.1083,-5.1134,-5.116,-5.0915,-5.0918,-5.0922,-5.1085,0,-5.1066,-5.1134,-5.1062,-5.1146,-5.1168,-5.1065,-5.1102,-5.1081,-5.1042,-5.1056,-5.1014,-5.1031,-5.0947,-5.0943,-5.0979,-5.0936,-5.1018,-5.0923,-5.0947,-5.0948,-5.0957,-5.1187,-5.1241,-5.1397,-5.1105,-5.1108,-5.1111,0,-5.1269,-5.1262,-5.1348,-5.1298,-5.1305,-5.134,-5.1331,-5.1346,-5.1319,-5.1288,-5.1282,-5.1215,-5.1254,-5.1161,-5.1215,-5.1152,-5.1157,-5.1138,-5.1142,-5.1142,-5.1039,-5.1193,-5.1445,-5.1469,-5.1142,-5.114,-5.1137,0,-5.1461,-5.1474,-5.1526,-5.1518,-5.1462,-5.1489,-5.1467,-5.1434,-5.1437,-5.1431,-5.1432,-5.143,-5.143,-5.1431,-5.1365,-5.1303,-5.1428,-5.1329,-5.1404,-5.1406,-5.1435,-5.1434,-5.1691,-5.1439,-5.1438,-5.1438,-5.1437,0,-5.1655,-5.1711,-5.1611,-5.1644,-5.1704,-5.1621,-5.1683,-5.1651,-5.1623,-5.1648,-5.1559,-5.1585,-5.1497,-5.1513,-5.1462,-5.1515,-5.1515,-5.1492,-5.1478,-5.15,-5.1503,-5.1502,-5.149,-5.1444,-5.1443,-5.1441,-5.144,0,-5.188,-5.1815,-5.1865,-5.1807,-5.1793,-5.1841,-5.1791,-5.1819,-5.1775,-5.1807,-5.181,-5.1741,-5.1756,-5.169,-5.1694,-5.166,-5.1738,-5.1706,-5.1747,-5.1737,-5.1816,-5.181,-5.2082,-5.2114,-5.1842,-5.1844,-5.1847,0,-5.2007,-5.2048,-5.1994,-5.2003,-5.1985,-5.2002,-5.2004,-5.1924,-5.193,-5.1902,-5.1934,-5.1941,-5.1942,-5.1971,-5.1922,-5.1924,-5.1891,-5.1987,-5.1891,-5.1912,-5.1893,-5.1891,-5.1895,-5.2007,-5.201,-5.2013,-5.2015,0,-5.2241,-5.2206,-5.2212,-5.2207,-5.2211,-5.2203,-5.219,-5.2203,-5.2117,-5.2128,-5.2141,-5.2143,-5.2146,-5.2154,-5.2146,-5.2124,-5.2057,-5.2045,-5.2063,-5.2086,-5.2108,-5.2097,-5.1802,-5.204,-5.2037,-5.2035,-5.2034,-5.2033,-5.2421,-5.2452,-5.2418,-5.2427,-5.2408,-5.2397,-5.2421,-5.2378,-5.2387,-5.2383,-5.2335,-5.2358,-5.233,-5.2312,-5.2297,-5.2314,-5.2269,-5.2294,-5.2301,-5.2308,-5.2322,-5.2106,-5.2312,-5.2311,-5.231,-5.231,-5.2309,0,-5.2649,-5.2622,-5.2631,-5.2614,-5.2622,-5.2555,-5.2536,-5.2548,-5.2568,-5.2547,-5.2549,-5.2565,-5.2572,-5.2524,-5.2525,-5.2548,-5.2517,-5.2551,-5.2549,-5.2545,-5.2362,-5.2347,-5.2576,-5.2576,-5.2576,-5.2576,-5.2576,-5.2576,-5.2769,-5.2818,-5.278,-5.2819,-5.2791,-5.2811,-5.2806,-5.2796,-5.2779,-5.2799,-5.2804,-5.2772,-5.274,-5.2738,-5.2742,-5.2728,-5.2732,-5.2778,-5.2753,-5.2583,-5.2558,-5.2533,-5.2518,-5.2779,-5.278,-5.2933,-5.2935,-5.2936]},{"header":{"parameterUnit":"m.s-1","parameterCategory":1,"la1":30.2991,"la2":30.254,"lo1":-89.0895,"lo2":-89.0444,"dy":0.0017,"dx":0.0017,"nx":28,"ny":28,"refTime":"2024-10-04T09:00:00:Z","depth":0,"parameterNumber":3,"parameterNumberName":"V-component_of_WINDS"},"data":[0,0,0,0,0,0,0,0,0,0,0,0,0,0,0,0,0,0,0,0,0,0,0,0,0,0,0,0,0,0,0,0,0,0,0,0,0,0,0,0,0,0,0,0,0,0,0,0,0,0,0,0,0,0,0,0,0,0,-1.5412,-1.5413,0,-1.5519,-1.5521,-1.5522,-1.5527,-1.5526,-1.5525,-1.5524,-1.5641,-1.5645,-1.565,0,0,0,0,0,0,0,0,0,0,0,0,0,-1.5218,-1.5222,-1.5412,-1.5413,-1.5415,-1.5519,-1.5521,-1.5522,-1.5527,-1.5526,-1.5524,-1.5523,-1.564,-1.5645,-1.565,0,0,0,0,0,0,0,0,0,0,0,0,0,-1.5312,-1.5223,-1.5412,-1.543,-1.5432,-1.5519,-1.5521,-1.5523,-1.5528,-1.5526,-1.5524,-1.5522,-1.5638,-1.5644,-1.5651,-1.5729,0,0,-1.567,-1.5673,0,0,0,0,0,0,0,0,-1.5306,-1.5319,-1.5426,-1.5429,-1.5432,-1.5508,-1.5495,-1.5592,-1.5528,-1.5492,-1.5523,-1.5521,-1.5599,-1.5608,-1.5633,-1.5734,-1.5739,-1.5671,-1.5675,-1.5678,-1.568,0,0,0,0,0,0,0,-1.53,-1.5314,-1.5455,-1.5427,-1.5431,-1.5435,-1.5446,-1.5514,-1.5555,-1.5495,-1.5495,-1.5508,-1.56,-1.5627,-1.5636,-1.5741,-1.5671,-1.5677,-1.5681,-1.5683,-1.5912,-1.5914,0,0,0,0,0,0,-1.5289,-1.5309,-1.5451,-1.5458,-1.5363,-1.544,-1.5452,-1.5485,-1.5554,-1.5563,-1.5509,-1.5508,-1.5617,-1.5628,-1.564,-1.5735,-1.5678,-1.5684,-1.5687,-1.591,-1.5912,-1.5915,0,0,0,0,0,0,-1.5285,-1.5302,-1.5447,-1.5384,-1.5402,-1.5445,-1.5482,-1.5489,-1.5515,-1.5565,-1.5573,-1.5528,-1.5616,-1.5631,-1.5706,-1.574,-1.5687,-1.5693,-1.5907,-1.591,-1.5913,-1.5927,0,0,0,0,0,0,-1.5279,-1.53,-1.5329,-1.5384,-1.5406,-1.5509,-1.5484,-1.5492,-1.5525,-1.5524,-1.5585,-1.5593,-1.5615,-1.5696,-1.5712,-1.5748,-1.5698,-1.5904,-1.5908,-1.5912,-1.5924,-1.5931,-1.5936,0,0,0,0,0,-1.5272,-1.533,-1.533,-1.5347,-1.5442,-1.5511,-1.5524,-1.5545,-1.5528,-1.5558,-1.559,-1.5591,-1.5733,-1.5704,-1.5722,-1.576,-1.5902,-1.5907,-1.5912,-1.5921,-1.5929,-1.5936,0,0,0,0,0,0,-1.5281,-1.5338,-1.5338,-1.5416,-1.5458,-1.5512,-1.555,-1.5553,-1.5604,-1.5601,-1.5628,-1.5642,-1.5717,-1.5746,-1.5712,-1.5839,-1.5816,-1.5825,-1.5817,-1.5825,-1.5831,-1.5823,-1.5703,0,0,0,0,0,-1.5291,-1.534,-1.5388,-1.5452,-1.5473,-1.5508,-1.5539,-1.5552,-1.5598,-1.5617,-1.5654,-1.5701,-1.5756,-1.5792,-1.5846,-1.5928,-1.5942,-1.5963,-1.5969,-1.5974,-1.5982,-1.6027,-1.6037,-1.5931,-1.5931,-1.5931,0,0,-1.5314,-1.5351,-1.5381,-1.5454,-1.5489,-1.5541,-1.5523,-1.558,-1.5619,-1.5626,-1.5699,-1.5728,-1.5782,-1.5861,-1.5898,-1.5888,-1.6014,-1.598,-1.5984,-1.5989,-1.6033,-1.6043,-1.6052,-1.5934,-1.5933,-1.5933,0,0,-1.5382,-1.5415,-1.5471,-1.5505,-1.5556,-1.5579,-1.5592,-1.5645,-1.5664,-1.5736,-1.5743,-1.5792,-1.5886,-1.5924,-1.5956,-1.6037,-1.604,-1.6054,-1.6086,-1.613,-1.6138,-1.6146,-1.6175,-1.6185,-1.6061,-1.6061,-1.6061,0,-1.5405,-1.5481,-1.55,-1.5555,-1.5588,-1.5594,-1.5651,-1.5685,-1.5752,-1.5775,-1.5762,-1.588,-1.5917,-1.6005,-1.6024,-1.605,-1.6067,-1.6047,-1.6135,-1.6143,-1.6151,-1.6179,-1.619,-1.6062,-1.6062,-1.6062,-1.6062,0,-1.5506,-1.5559,-1.5599,-1.566,-1.5697,-1.5754,-1.5783,-1.5818,-1.5828,-1.5852,-1.5926,-1.5971,-1.6033,-1.6055,-1.6066,-1.6144,-1.6136,-1.6129,-1.6107,-1.6162,-1.6188,-1.6199,-1.6064,-1.6063,-1.6063,-1.6063,0,0,-1.5584,-1.5653,-1.5668,-1.5695,-1.5752,-1.5794,-1.5851,-1.5909,-1.5939,-1.5986,-1.6035,-1.6114,-1.6107,-1.6143,-1.6158,-1.6197,-1.6258,-1.6185,-1.6187,-1.6198,-1.6348,-1.6353,-1.6365,-1.6261,-1.6263,-1.6264,-1.6343,0,-1.5658,-1.5757,-1.5775,-1.5862,-1.5912,-1.5917,-1.5967,-1.6009,-1.6033,-1.608,-1.6108,-1.6163,-1.615,-1.6172,-1.621,-1.6243,-1.6289,-1.6237,-1.6309,-1.6311,-1.6295,-1.6379,-1.6385,-1.6457,-1.6354,-1.6356,-1.6357,0,-1.5758,-1.5803,-1.5894,-1.5943,-1.5965,-1.6009,-1.6063,-1.6107,-1.6155,-1.617,-1.6209,-1.622,-1.6281,-1.6255,-1.6341,-1.6305,-1.6336,-1.6356,-1.636,-1.6368,-1.6338,-1.639,-1.6481,-1.6492,-1.6374,-1.6373,-1.6371,0,-1.5806,-1.589,-1.5955,-1.5978,-1.6037,-1.6067,-1.6094,-1.6139,-1.6172,-1.622,-1.6243,-1.6299,-1.6329,-1.6373,-1.64,-1.6378,-1.6484,-1.646,-1.65,-1.6499,-1.6522,-1.652,-1.662,-1.6541,-1.6541,-1.6541,-1.6541,0,-1.5887,-1.5942,-1.5976,-1.6016,-1.6079,-1.61,-1.6162,-1.6189,-1.6228,-1.6275,-1.6285,-1.6329,-1.6361,-1.641,-1.6431,-1.6499,-1.6514,-1.6529,-1.6534,-1.6528,-1.6526,-1.6549,-1.6545,-1.6544,-1.6543,-1.6542,-1.6542,0,-1.5951,-1.5975,-1.6046,-1.6095,-1.6108,-1.6153,-1.6195,-1.6235,-1.6259,-1.6318,-1.6333,-1.6372,-1.643,-1.646,-1.6534,-1.6548,-1.6625,-1.6627,-1.6608,-1.661,-1.6648,-1.6644,-1.6766,-1.6783,-1.6692,-1.6693,-1.6694,0,-1.6001,-1.6043,-1.6095,-1.6125,-1.6151,-1.6201,-1.6234,-1.6257,-1.6292,-1.6348,-1.6382,-1.6439,-1.6487,-1.6581,-1.6617,-1.6673,-1.6677,-1.6716,-1.6686,-1.6679,-1.6678,-1.6675,-1.668,-1.6721,-1.6722,-1.6723,-1.6724,0,-1.6087,-1.6097,-1.6143,-1.6193,-1.6232,-1.6273,-1.6315,-1.634,-1.6369,-1.6408,-1.6466,-1.6503,-1.6576,-1.6635,-1.6693,-1.6723,-1.6729,-1.6732,-1.6744,-1.6739,-1.6727,-1.6734,-1.6623,-1.673,-1.6729,-1.6729,-1.6728,-1.6728,-1.6146,-1.6184,-1.6226,-1.6277,-1.6309,-1.6347,-1.6386,-1.6414,-1.6462,-1.6521,-1.6532,-1.6594,-1.6641,-1.672,-1.6751,-1.6801,-1.6794,-1.6811,-1.6816,-1.682,-1.6822,-1.6718,-1.6812,-1.6812,-1.6812,-1.6812,-1.6812,0,-1.6233,-1.626,-1.6306,-1.6362,-1.6402,-1.6401,-1.6446,-1.6481,-1.6534,-1.6575,-1.6621,-1.6688,-1.6744,-1.6783,-1.6841,-1.6874,-1.6878,-1.6888,-1.6886,-1.6893,-1.6825,-1.6809,-1.6884,-1.6884,-1.6884,-1.6884,-1.6884,-1.6884,-1.6284,-1.6347,-1.6361,-1.6441,-1.6468,-1.6526,-1.6552,-1.6588,-1.662,-1.6694,-1.6739,-1.6763,-1.6805,-1.6865,-1.6917,-1.6927,-1.6949,-1.6959,-1.697,-1.6906,-1.6898,-1.6891,-1.6876,-1.6963,-1.6963,-1.7033,-1.7034,-1.7034]}]]